Regional Weather Roundup
Issued by NWS

Home | Current Version | Previous Version | Graphics & Text | Print | Product List | Glossary On
Versions: 1 2 3 4 5 6 7 8 9 10 11 12 13 14 15 16 17 18 19 20 21 22 23 24 25 26 27 28 29 30 31 32 33 34 35 36 37 38 39 40 41 42 43 44 45 46 47 48 49 50
000
ASUS43 KFSD 050210
RWRSD

WEATHER ROUNDUP FOR SOUTH DAKOTA
NATIONAL WEATHER SERVICE SIOUX FALLS SD
900 PM CDT WED MAY 04 2016

NOTE: "FAIR" INDICATES FEW OR NO CLOUDS BELOW 12,000 FEET WITH NO
SIGNIFICANT WEATHER AND/OR OBSTRUCTIONS TO VISIBILITY.


SDZ001>005-009-010-012>017-050300-
NORTHWEST AND NORTH CENTRAL SOUTH DAKOTA

CITY           SKY/WX    TMP DP  RH WIND       PRES   REMARKS
BUFFALO          N/A     67  43  41 SE13      29.92S
FAITH            N/A     63  45  51 SE13      30.00S
MOBRIDGE       CLEAR     62  48  60 SE8       29.97S
$$

SDZ012>016-024>037-041>051-057-063-072>074-050300-
SOUTHWEST AND SOUTH CENTRAL SOUTH DAKOTA

CITY           SKY/WX    TMP DP  RH WIND       PRES   REMARKS
RAPID CTY ARPT CLEAR     62  44  51 SE8       30.01S
PIERRE         CLEAR     68  39  34 S6        30.00S
CUSTER         CLEAR     61  35  37 VRB7G22   30.12S
ELLSWORTH AFB  CLEAR     63  44  49 S13       30.00F
PHILIP         CLEAR     60  47  61 E7        30.01S
PINE RIDGE     CLEAR     65  40  39 SE6       30.04S
WINNER         FAIR      61  42  49 SE7       30.04S
$$

SDZ004>011-016>023-039-040-050300-
NORTHEAST SOUTH DAKOTA

CITY           SKY/WX    TMP DP  RH WIND       PRES   REMARKS
ABERDEEN       CLEAR     62  39  42 E3        29.98F
WATERTOWN      CLEAR     59  32  36 N5        30.00S
BROOKINGS      CLEAR     59  30  33 N6        30.00
SISSETON         N/A     62  28  27 CALM      29.98S
$$

SDZ017-020-022-023-036>040-048>070-050300-
SOUTHEAST SOUTH DAKOTA

CITY           SKY/WX    TMP DP  RH WIND       PRES   REMARKS
SIOUX FALLS    PTCLDY    57  33  40 NW5       30.00R
HURON          CLEAR     59  40  49 CALM      30.00S
CHAMBERLAIN    CLEAR     64  49  57 CALM      30.02S
MITCHELL       CLEAR     65  37  35 CALM      30.01S
YANKTON        CLEAR     57  37  47 NW7       30.01S
$$

ABBREVIATIONS USED IN REMARKS
   TC - TEMPERATURE IN CELSIUS
  WCI - WIND CHILL INDEX
   HX - HEAT INDEX
  VSB - VISIBILITY




USA.gov is the U.S. government's official web portal to all federal, state and local government web resources and services.